Weather History for Colorado Springs, CO

Change the Weather History Date:

Tuesday, September 17, 2013

  Actual Average Record
Temperature  
Mean Temperature 67 °F 60 °F  
Max Temperature 81 °F 74 °F 95 °F (1936)
Min Temperature 53 °F 47 °F 26 °F (1903)
Degree Days  
Heating Degree Days 0 5  
Month to date heating degree days 15 57  
Since 1 July heating degree days 25 88  
Cooling Degree Days 2 1  
Month to date cooling degree days 83 30  
Year to date cooling degree days 685 448  
Growing Degree Days 16 (Base 50)    
Moisture  
Dew Point 52 °F    
Average Humidity 63    
Maximum Humidity 100    
Minimum Humidity 25    
Precipitation  
Precipitation 0.00 in 0.03 in 1.15 in (1976)
Month to date precipitation 4.00 0.81  
Year to date precipitation 17.66 14.60  
Snow  
Snow 0.00 in 0.00 in 8.90 in (1971)
Month to date snowfall 0.0 0.0  
Since 1 July snowfall T 0.0  
Since 1 September snowfall 0.0 0.0  
Snow Depth 0.00 in    
Sea Level Pressure  
Sea Level Pressure 29.97 in    
Wind  
Wind Speed 5 mph (SSE)    
Max Wind Speed 18 mph    
Max Gust Speed 22 mph    
Visibility 6 miles    
Events Fog    
T = Trace of Precipitation, MM = Missing Value Source: NWS Daily Summary

Daily Weather History Graph

Daily Weather History Graph

Search for Another Location

Airport:

Trip Planner

Search our weather history database for the weather conditions in past years. The results will help you decide how hot, cold, wet, or windy it might be!

Date:

Astronomy

Sep. 17, 2013 Rise Set
Actual Time 6:42 AM MDT 7:03 PM MDT
Civil Twilight 6:15 AM MDT 7:29 PM MDT
Nautical Twilight 5:44 AM MDT 8:01 PM MDT
Astronomical Twilight 5:12 AM MDT 8:33 PM MDT
Moon 5:51 PM MDT (9/17) 4:40 AM MDT (9/17)
Length of Visible Light 13h 14m
Length of Day
12h 21m
Waxing Gibbous, 96% of the Moon is Illuminated
Sep 17
Waxing Gibbous
Sep 19
Full
Sep 26
Last Quarter
Oct 4
New
Oct 11
First Quarter

Hourly Weather History & Observations

Time (MDT) Temp. Dew Point Humidity Pressure Visibility Wind Dir Wind Speed Gust Speed Precip Events Conditions
12:35 AM 57.2 °F 55.4 °F 94% 30.22 in 0.1 mi SSE 8.1 mph - N/A Fog Fog
12:54 AM 57.0 °F 57.0 °F 100% 30.07 in 0.0 mi South 3.5 mph - N/A Fog Fog
1:34 AM 57.2 °F 55.4 °F 94% 30.21 in 0.0 mi Calm Calm - N/A Fog Fog
1:54 AM 57.0 °F 55.9 °F 96% 30.04 in 2.0 mi Calm Calm - N/A   Overcast
2:09 AM 57.2 °F 55.4 °F 94% 30.20 in 5.0 mi NNW 3.5 mph - N/A   Overcast
2:24 AM 57.2 °F 55.4 °F 94% 30.19 in 6.0 mi Calm Calm - N/A   Overcast
2:54 AM 57.9 °F 55.0 °F 90% 30.01 in 6.0 mi NW 3.5 mph - N/A   Overcast
3:54 AM 55.9 °F 54.0 °F 93% 30.00 in 8.0 mi Calm Calm - N/A   Scattered Clouds
4:54 AM 54.0 °F 52.0 °F 93% 30.00 in 6.0 mi SW 3.5 mph - N/A   Scattered Clouds
5:32 AM 53.6 °F 51.8 °F 94% 30.16 in 4.0 mi South 3.5 mph - N/A   Mostly Cloudy
5:54 AM 55.0 °F 53.1 °F 93% 30.00 in 3.0 mi Calm Calm - N/A   Overcast
6:14 AM 53.6 °F 53.6 °F 100% 30.17 in 0.2 mi Calm Calm - N/A Fog Fog
6:22 AM 53.6 °F 53.6 °F 100% 30.17 in 0.1 mi Calm Calm - N/A Fog Fog
6:54 AM 54.0 °F 53.1 °F 97% 30.03 in 0.1 mi WNW 3.5 mph - N/A Fog Fog
7:30 AM 53.6 °F 51.8 °F 94% 30.17 in 0.2 mi NNW 4.6 mph - N/A Fog Fog
7:54 AM 53.1 °F 52.0 °F 96% 30.03 in 0.2 mi NNW 3.5 mph - N/A Fog Fog
8:03 AM 53.6 °F 53.6 °F 100% 30.16 in 10.0 mi Calm Calm - N/A   Partly Cloudy
8:54 AM 60.1 °F 55.0 °F 83% 29.97 in 10.0 mi SW 3.5 mph - N/A   Clear
9:54 AM 66.0 °F 55.0 °F 68% 29.95 in 10.0 mi Calm Calm - N/A   Clear
10:54 AM 72.0 °F 54.0 °F 53% 29.92 in 10.0 mi Calm Calm - N/A   Partly Cloudy
11:54 AM 75.0 °F 50.0 °F 41% 29.89 in 10.0 mi North - - N/A   Partly Cloudy
12:54 PM 77.0 °F 45.0 °F 32% 29.86 in 10.0 mi South 10.4 mph - N/A   Partly Cloudy
1:54 PM 78.1 °F 39.9 °F 25% 29.83 in 10.0 mi Calm Calm - N/A   Partly Cloudy
2:54 PM 79.0 °F 46.0 °F 31% 29.79 in 10.0 mi SE 9.2 mph - N/A   Partly Cloudy
3:54 PM 78.1 °F 46.9 °F 33% 29.78 in 10.0 mi ESE 8.1 mph - N/A   Partly Cloudy
4:54 PM 80.1 °F 44.1 °F 28% 29.76 in 10.0 mi South 17.3 mph - N/A   Scattered Clouds
5:54 PM 77.0 °F 46.9 °F 34% 29.76 in 10.0 mi SSE 13.8 mph - N/A   Scattered Clouds
6:54 PM 70.0 °F 50.0 °F 49% 29.80 in 10.0 mi SSE 6.9 mph - N/A   Scattered Clouds
7:54 PM 68.0 °F 51.1 °F 55% 29.81 in 10.0 mi South 3.5 mph - N/A   Scattered Clouds
8:54 PM 66.9 °F 52.0 °F 59% 29.80 in 10.0 mi South 5.8 mph - N/A   Mostly Cloudy
9:54 PM 63.0 °F 52.0 °F 67% 29.78 in 10.0 mi NNE 8.1 mph - N/A   Mostly Cloudy
10:54 PM 64.0 °F 51.1 °F 63% 29.75 in 10.0 mi NE 5.8 mph - N/A   Mostly Cloudy
11:54 PM 61.0 °F 50.0 °F 67% 29.75 in 10.0 mi ENE 3.5 mph - N/A   Mostly Cloudy